User: anonymous   Login
Location: Unspecified
(0.0000°N, 0.0000°E)
Time: 05:27:50
(UTC+00:00)
Language:

N. Korean satellite - Orbit

View from above orbital plane
View from above orbital plane
View from above satellite
View from above satellite

Ground track
Ground track

The orbit data is extracted from the following two-line orbital elements,

1 39026U 12072A   16152.14659979  .00003097  00000-0  12891-3 0  9990
2 39026  97.2493 176.9292 0044562  87.9408 272.6931 15.23569210191789
Epoch (UTC): 31 May 2016 03:31:06
Eccentricity: 0.0044562
inclination: 97.2493°
perigee height: 464 km
apogee height: 526 km
right ascension of ascending node: 176.9292°
argument of perigee: 87.9408°
revolutions per day: 15.23569210
mean anomaly at epoch: 272.6931°
orbit number at epoch: 19178

The dashed part of the orbit path shows where the satellite is in the earth's shadow,  

DLR